Date String (YYYY-MM-DD hh:mm:ss) UTC,Instrument flags,absolute air pressure of the measurement (hPa),sample flow rate (lpm),inlet stack bypass flow (lpm),air temperature of the measurement (°C),ambient temperature measured by the external sensor (°C),aerosol sample conditioner tube jacket temperature (°C),OPC LED temperature (°C),internal box temperature (°C),relative humidity of the measurement (%),span deviation,mass concentration of particles derived from Lorenz-Mie calculation of OPC scattering (μg/m³),mass concentration of particles derived from Lorenz-Mie calculation of OPC scattering (μg/m³),mass concentration of particles derived from Lorenz-Mie calculation of OPC scattering (μg/m³)
DateTimeUTC,F1_M11,P_M11,Q1_M11,Q2_M11,T1_M11,T2_M11,T3_M11,T4_M11,T5_M11,U1_M11,ZSPAN_M11,X0_M11,X2_M11,X1_M11
2024-03-23 10:00:00,SystemResetWarning,0824.4,5.00,000.00,022.5,021.5,000.0,031.2,024.4,17.8,0000.0,0018.97,0004.00,0002.60
2024-03-23 10:01:00,SystemResetWarning,0824.3,5.00,000.00,022.5,021.5,000.0,031.2,024.4,17.7,0000.0,0018.94,0004.00,0002.60
2024-03-23 10:02:00,SystemResetWarning,0824.3,5.00,000.00,022.5,021.5,000.0,031.2,024.4,17.6,0000.0,0017.65,0004.00,0002.60
2024-03-23 10:03:00,SystemResetWarning,0824.2,5.00,000.00,022.5,021.5,000.0,031.2,024.4,17.7,0000.0,0015.58,0004.01,0002.61
2024-03-23 10:04:00,SystemResetWarning,0824.2,4.98,000.00,022.5,021.5,000.0,031.2,024.4,17.7,0000.0,0014.98,0004.00,0002.59
2024-03-23 10:05:00,SystemResetWarning,0824.3,5.00,000.00,022.5,021.5,000.0,031.2,024.4,17.7,0000.0,0014.89,0004.04,0002.56
2024-03-23 10:06:00,SystemResetWarning,0824.4,5.02,000.00,022.5,021.5,000.0,031.2,024.4,17.7,0000.0,0015.13,0004.11,0002.56
2024-03-23 10:07:00,SystemResetWarning,0824.4,5.00,000.00,022.5,021.5,000.0,031.2,024.4,17.7,0000.0,0013.46,0004.13,0002.55
2024-03-23 10:08:00,SystemResetWarning,0824.4,4.99,000.00,022.5,021.5,000.0,031.2,024.4,17.8,0000.0,0013.35,0004.17,0002.55
2024-03-23 10:09:00,SystemResetWarning,0824.6,5.00,000.00,022.5,021.6,000.0,031.2,024.4,17.8,0000.0,0013.32,0004.10,0002.52
2024-03-23 10:10:00,SystemResetWarning,0824.7,5.01,000.00,022.4,021.6,000.0,031.1,024.4,17.8,0000.0,0012.81,0004.13,0002.51
2024-03-23 10:11:00,SystemResetWarning,0824.7,5.00,000.00,022.4,021.6,000.0,031.1,024.3,17.9,0000.0,0012.37,0004.11,0002.46
2024-03-23 10:12:00,SystemResetWarning,0824.5,4.99,000.00,022.4,021.6,000.0,031.1,024.3,17.9,0000.0,0012.91,0004.09,0002.44
2024-03-23 10:13:00,SystemResetWarning,0824.4,5.00,000.00,022.4,021.6,000.0,031.1,024.3,17.8,0000.0,0013.48,0004.09,0002.43
2024-03-23 10:14:00,SystemResetWarning,0824.2,4.99,000.00,022.4,021.6,000.0,031.1,024.3,17.8,0000.0,0013.88,0004.14,0002.41
2024-03-23 10:15:00,SystemResetWarning,0824.2,5.01,000.00,022.4,021.6,000.0,031.1,024.3,17.8,0000.0,0014.23,0004.17,0002.41
2024-03-23 10:16:00,SystemResetWarning,0824.1,5.01,000.00,022.4,021.6,000.0,031.1,024.3,17.7,0000.0,0014.92,0004.16,0002.43
2024-03-23 10:17:00,SystemResetWarning,0824.2,5.01,000.00,022.4,021.6,000.0,031.1,024.3,17.8,0000.0,0014.16,0004.15,0002.47
2024-03-23 10:18:00,SystemResetWarning,0824.3,4.99,000.00,022.4,021.6,000.0,031.1,024.3,17.8,0000.0,0014.21,0004.16,0002.51
2024-03-23 10:19:00,SystemResetWarning,0824.4,4.98,000.00,022.4,021.6,000.0,031.1,024.3,17.8,0000.0,0014.15,0004.17,0002.55
2024-03-23 10:20:00,SystemResetWarning,0824.4,5.00,000.00,022.4,021.6,000.0,031.1,024.3,17.8,0000.0,0013.70,0004.19,0002.59
2024-03-23 10:21:00,SystemResetWarning,0824.6,5.02,000.00,022.4,021.6,000.0,031.1,024.3,17.8,0000.0,0013.80,0004.19,0002.61
2024-03-23 10:22:00,SystemResetWarning,0824.6,4.98,000.00,022.4,021.6,000.0,031.1,024.3,17.8,0000.0,0013.92,0004.16,0002.63
2024-03-23 10:23:00,SystemResetWarning,0824.5,4.99,000.00,022.4,021.6,000.0,031.1,024.3,17.8,0000.0,0014.05,0004.16,0002.67
2024-03-23 10:24:00,SystemResetWarning,0824.4,5.01,000.00,022.3,021.5,000.0,031.0,024.2,17.7,0000.0,0014.35,0004.24,0002.74
2024-03-23 10:25:00,SystemResetWarning,0824.3,5.00,000.00,022.3,021.5,000.0,031.0,024.2,17.7,0000.0,0015.31,0004.25,0002.83
2024-03-23 10:26:00,SystemResetWarning,0824.3,4.99,000.00,022.3,021.5,000.0,031.0,024.2,17.7,0000.0,0015.77,0004.31,0002.91
2024-03-23 10:27:00,SystemResetWarning,0824.3,4.99,000.00,022.3,021.5,000.0,031.0,024.2,17.8,0000.0,0016.14,0004.32,0002.94
2024-03-23 10:28:00,SystemResetWarning,0824.4,5.00,000.00,022.3,021.5,000.0,031.0,024.2,17.8,0000.0,0016.29,0004.26,0002.93
2024-03-23 10:29:00,SystemResetWarning,0824.4,5.01,000.00,022.3,021.5,000.0,031.0,024.2,17.9,0000.0,0016.68,0004.24,0002.93
2024-03-23 10:30:00,SystemResetWarning,0824.4,5.00,000.00,022.3,021.5,000.0,031.0,024.2,18.0,0000.0,0016.60,0004.23,0002.97
2024-03-23 10:31:00,SystemResetWarning,0824.4,5.01,000.00,022.3,021.5,000.0,031.0,024.2,18.0,0000.0,0016.62,0004.27,0003.01
2024-03-23 10:32:00,SystemResetWarning,0824.4,5.01,000.00,022.3,021.5,000.0,031.0,024.2,18.0,0000.0,0016.56,0004.34,0003.04
2024-03-23 10:33:00,SystemResetWarning,0824.4,5.00,000.00,022.3,021.4,000.0,031.0,024.2,18.0,0000.0,0016.88,0004.38,0003.08
2024-03-23 10:34:00,SystemResetWarning,0824.5,5.00,000.00,022.3,021.4,000.0,031.0,024.1,17.9,0000.0,0017.36,0004.45,0003.11
2024-03-23 10:35:00,SystemResetWarning,0824.7,5.00,000.00,022.2,021.3,000.0,031.0,024.1,18.0,0000.0,0017.07,0004.40,0003.11
2024-03-23 10:36:00,SystemResetWarning,0824.8,5.00,000.00,022.2,021.3,000.0,030.9,024.1,18.0,0000.0,0016.96,0004.34,0003.09
2024-03-23 10:37:00,SystemResetWarning,0824.8,5.00,000.00,022.2,021.3,000.0,030.9,024.1,18.0,0000.0,0016.87,0004.32,0003.08
2024-03-23 10:38:00,SystemResetWarning,0824.7,4.99,000.00,022.2,021.3,000.0,030.9,024.1,18.0,0000.0,0016.02,0004.32,0003.07
2024-03-23 10:39:00,SystemResetWarning,0824.5,5.01,000.00,022.2,021.3,000.0,030.9,024.1,18.0,0000.0,0015.49,0004.34,0003.10
2024-03-23 10:40:00,SystemResetWarning,0824.3,5.01,000.00,022.2,021.3,000.0,030.9,024.1,18.1,0000.0,0015.36,0004.37,0003.10
2024-03-23 10:41:00,SystemResetWarning,0824.3,4.99,000.00,022.2,021.2,000.0,030.9,024.0,18.3,0000.0,0017.32,0004.37,0003.10
2024-03-23 10:42:00,SystemResetWarning,0824.3,5.01,000.00,022.2,021.2,000.0,030.9,024.0,18.3,0000.0,0017.27,0004.35,0003.10
2024-03-23 10:43:00,SystemResetWarning,0824.4,4.99,000.00,022.1,021.2,000.0,030.9,024.0,18.2,0000.0,0017.89,0004.35,0003.10
2024-03-23 10:44:00,SystemResetWarning,0824.4,5.00,000.00,022.1,021.2,000.0,030.9,024.0,18.2,0000.0,0018.03,0004.32,0003.10
2024-03-23 10:45:00,SystemResetWarning,0824.4,5.01,000.00,022.1,021.1,000.0,030.8,024.0,18.2,0000.0,0017.78,0004.34,0003.09
2024-03-23 10:46:00,SystemResetWarning,0824.3,5.00,000.00,022.1,021.1,000.0,030.8,024.0,18.2,0000.0,0016.45,0004.29,0003.07
2024-03-23 10:47:00,SystemResetWarning,0824.4,5.00,000.00,022.1,021.1,000.0,030.8,023.9,18.3,0000.0,0015.47,0004.31,0003.07
2024-03-23 10:48:00,SystemResetWarning,0824.4,5.01,000.00,022.1,021.1,000.0,030.8,023.9,18.3,0000.0,0015.17,0004.35,0003.06
2024-03-23 10:49:00,SystemResetWarning,0824.5,5.00,000.00,022.1,021.1,000.0,030.8,023.9,18.4,0000.0,0015.70,0004.38,0003.05
2024-03-23 10:50:00,SystemResetWarning,0824.5,5.00,000.00,022.0,021.1,000.0,030.8,023.9,18.5,0000.0,0016.39,0004.38,0003.01
2024-03-23 10:51:00,SystemResetWarning,0824.5,5.00,000.00,022.0,021.1,000.0,030.8,023.9,18.6,0000.0,0016.40,0004.36,0002.97
2024-03-23 10:52:00,SystemResetWarning,0824.5,5.00,000.00,022.0,021.1,000.0,030.8,023.9,18.6,0000.0,0014.34,0004.33,0002.92
2024-03-23 10:53:00,SystemResetWarning,0824.5,5.00,000.00,022.0,021.1,000.0,030.8,023.9,18.7,0000.0,0013.96,0004.27,0002.88
2024-03-23 10:54:00,SystemResetWarning,0824.5,5.00,000.00,022.0,021.0,000.0,030.7,023.9,18.7,0000.0,0013.42,0004.25,0002.84
2024-03-23 10:55:00,SystemResetWarning,0824.6,5.00,000.00,022.0,021.0,000.0,030.7,023.9,18.8,0000.0,0012.97,0004.20,0002.78
2024-03-23 10:56:00,SystemResetWarning,0824.7,4.99,000.00,022.0,021.0,000.0,030.7,023.8,18.9,0000.0,0012.72,0004.18,0002.75
2024-03-23 10:57:00,SystemResetWarning,0824.6,5.00,000.00,021.9,020.9,000.0,030.7,023.8,18.9,0000.0,0012.76,0004.16,0002.71
2024-03-23 10:58:00,SystemResetWarning,0824.5,5.00,000.00,021.9,020.8,000.0,030.7,023.7,18.9,0000.0,0012.74,0004.12,0002.68
2024-03-23 10:59:00,SystemResetWarning,0824.4,5.00,000.00,021.9,020.8,000.0,030.7,023.7,18.9,0000.0,0012.62,0004.06,0002.64
